Regional Weather Roundup
Issued by NWS

Home | Current Version | Previous Version | Text Only | Print | Product List | Glossary On
Versions: 1 2 3 4 5 6 7 8 9 10 11 12 13 14 15 16 17 18 19 20 21 22 23 24 25 26 27 28 29 30 31 32 33 34 35 36 37 38 39 40 41 42 43 44 45 46 47 48 49 50
000
ASUS43 KLSX 131807
RWRMO

WEATHER SUMMARY FOR MISSOURI
NATIONAL WEATHER SERVICE SPRINGFIELD MO
100 PM CDT SUN JUN 13 2021

NOTE: "FAIR" INDICATES FEW OR NO CLOUDS BELOW 12,000 FEET WITH NO
       SIGNIFICANT WEATHER AND/OR OBSTRUCTIONS TO VISIBILITY.
       CURRENT SKY AND/OR WEATHER CONDITIONS ARE NOT AVAILABLE FOR
       CHILLICOTHE AND FARMINGTON.

MOZ001>031-035>038-043-044-053-054-131900-
...NORTHERN AND WESTERN MISSOURI...

CITY           SKY/WX    TMP DP  RH WIND       PRES   REMARKS
KANSAS CTY INT SUNNY     87  52  29 NE7       30.10S
6HR MIN TEMP:  67; 6HR MAX TEMP:  88;

KANSAS C DTWN  SUNNY     87  50  27 NE10      30.07S
6HR MIN TEMP:  66; 6HR MAX TEMP:  87;

LEE`S SUMMIT   SUNNY     85  54  34 E9        30.10S
6HR MIN TEMP:  66; 6HR MAX TEMP:  86;

ST JOSEPH      SUNNY     88  54  31 E7        30.09F
6HR MIN TEMP:  60; 6HR MAX TEMP:  88;

CHILLICOTHE      N/A     88  49  25 NE6       30.08F
6HR MIN TEMP:  63; 6HR MAX TEMP:  88;

KIRKSVILLE     SUNNY     86  55  34 VRB6      30.09F
6HR MIN TEMP:  64; 6HR MAX TEMP:  86;


$$
MOZ066>068-077>081-088>096-101>105-131900-
...SOUTHWEST MISSOURI...

CITY           SKY/WX    TMP DP  RH WIND       PRES   REMARKS
SPRINGFIELD    SUNNY     85  56  37 NE10      30.06F
6HR MIN TEMP:  69; 6HR MAX TEMP:  85;

JOPLIN         SUNNY     87  60  40 NE9       30.06F
6HR MIN TEMP:  70; 6HR MAX TEMP:  87;

BRANSON        SUNNY     86  63  45 NE8       30.07F

$$
MOZ032>034-039>042-045>050-055>058-069>072-131900-
...CENTRAL MISSOURI...

CITY           SKY/WX    TMP DP  RH WIND       PRES   REMARKS
COLUMBIA       SUNNY     88  52  29 N9        30.06F
6HR MIN TEMP:  70; 6HR MAX TEMP:  88;

JEFFERSON CITY SUNNY     89  52  28 N8        30.04F
6HR MIN TEMP:  70; 6HR MAX TEMP:  89;

ROLLA          SUNNY     84  59  42 N8        30.07F
6HR MIN TEMP:  68; 6HR MAX TEMP:  84;

SEDALIA        SUNNY     86  51  29 NE8G18    30.09S
6HR MIN TEMP:  68; 6HR MAX TEMP:  86;

WHITEMAN AFB   MOSUNNY   85  45  23 NE8       30.04F
WARRENSBURG    SUNNY     84  54  34 N8        30.08F
OSAGE BEACH    SUNNY     85  56  37 N5        30.07F

$$
MOZ051-052-059>065-131900-
...EAST CENTRAL MISSOURI...

CITY           SKY/WX    TMP DP  RH WIND       PRES   REMARKS
ST LOUIS INTL  MOSUNNY   89  57  33 N9G21     30.02S
6HR MIN TEMP:  76; 6HR MAX TEMP:  89;

SPIRIT OF STL  SUNNY     88  56  33 N9G17     30.01S
6HR MIN TEMP:  73; 6HR MAX TEMP:  88;

ST CHARLES     SUNNY     90  54  29 N13G20    30.00F
6HR MIN TEMP:  76; 6HR MAX TEMP:  91;


$$
MOZ072>076-082>087-097>100-106>115-131900-
...SOUTH CENTRAL AND SOUTHEAST MISSOURI...

CITY           SKY/WX    TMP DP  RH WIND       PRES   REMARKS
CAPE GIRARDEAU SUNNY     91  71  51 N15       29.95F HX  97
6HR MIN TEMP:  78; 6HR MAX TEMP:  91;

FARMINGTON     SUNNY     84  64  50 N7        30.03F
6HR MIN TEMP:  73; 6HR MAX TEMP:  85;

POPLAR BLUFF   SUNNY     89  69  51 N14       29.97S HX  93
6HR MIN TEMP:  76; 6HR MAX TEMP:  89;

WEST PLAINS    SUNNY     87  61  41 N8        30.06F
6HR MIN TEMP:  74; 6HR MAX TEMP:  87;


$$



USA.gov is the U.S. government's official web portal to all federal, state and local government web resources and services.